FW5940 Weather Reports


Display with metric or nautical units.
time (UTC)temp
F
wind
direction
speed
MPH
gust
MPH
rain 1hr
in
rain 24hr
in
rain mn
in
humidity
%
barometer
mb
20260903182016 69 225 2.0 4.0 0.00 0.00 0.00 66 1021.8
20260903181016 69 232 2.0 7.0 0.00 0.00 0.00 67 1021.8
20260903180017 70 235 2.0 4.0 0.00 0.00 0.00 70 1021.6
20260903175017 70 220 2.0 4.0 0.00 0.00 0.00 69 1021.6
20260903174016 72 239 2.0 4.0 0.00 0.00 0.00 65 1021.6
20260903173018 73 234 2.0 9.0 0.00 0.00 0.00 58 1021.7
20260903172015 73 230 4.0 9.0 0.00 0.00 0.00 57 1021.6
20260903171031 73 232 6.0 11.0 0.00 0.00 0.00 58 1021.5
20260903170016 74 224 3.0 7.0 0.00 0.00 0.00 58 1021.5
20260903165016 74 227 2.0 4.0 0.00 0.00 0.00 56 1021.4
20260903164018 75 227 4.0 9.0 0.00 0.00 0.00 55 1021.5
20260903163017 75 246 5.0 10.0 0.00 0.00 0.00 56 1021.4
20260903162103 75 263 5.0 11.0 0.00 0.00 0.00 56 1021.4
20260903161017 76 257 5.0 12.0 0.00 0.00 0.00 54 1021.4
20260903160035 76 223 3.0 7.0 0.00 0.00 0.00 56 1021.4
20260903155017 76 239 4.0 11.0 0.00 0.00 0.00 54 1021.4
20260903154016 76 250 5.0 9.0 0.00 0.00 0.00 53 1021.5
20260903153038 76 256 5.0 11.0 0.00 0.00 0.00 53 1021.4
20260903152017 76 261 5.0 10.0 0.00 0.00 0.00 52 1021.4
20260903151018 77 264 5.0 12.0 0.00 0.00 0.00 53 1021.5
20260903150016 78 264 7.0 14.0 0.00 0.00 0.00 52 1021.4
20260903145037 77 254 5.0 11.0 0.00 0.00 0.00 52 1021.5
20260903144037 76 269 5.0 11.0 0.00 0.00 0.00 54 1021.6
20260903143040 77 265 6.0 11.0 0.00 0.00 0.00 53 1021.9
20260903142017 77 252 6.0 10.0 0.00 0.00 0.00 53 1021.9
20260903141016 77 246 6.0 11.0 0.00 0.00 0.00 52 1021.9
20260903140017 77 269 4.0 9.0 0.00 0.00 0.00 53 1021.8
20260903135104 77 248 5.0 11.0 0.00 0.00 0.00 52 1021.9
20260903134016 78 222 7.0 14.0 0.00 0.00 0.00 50 1021.8
20260903133016 78 262 5.0 14.0 0.00 0.00 0.00 52 1021.8
20260903132058 77 267 7.0 14.0 0.00 0.00 0.00 51 1021.9
20260903131017 76 257 6.0 10.0 0.00 0.00 0.00 53 1022.0
20260903130017 75 246 6.0 11.0 0.00 0.00 0.00 53 1022.1
20260903125017 76 263 7.0 12.0 0.00 0.00 0.00 52 1022.1
20260903124016 77 250 5.0 10.0 0.00 0.00 0.00 52 1022.2
20260903123015 77 264 6.0 12.0 0.00 0.00 0.00 53 1022.2
20260903122016 77 269 6.0 12.0 0.00 0.00 0.00 53 1022.4
20260903121016 76 260 5.0 12.0 0.00 0.00 0.00 54 1022.4
20260903120023 75 251 5.0 10.0 0.00 0.00 0.00 54 1022.4
20260903115039 76 261 6.0 13.0 0.00 0.00 0.00 53 1022.4
20260903114015 77 265 7.0 13.0 0.00 0.00 0.00 52 1022.3
20260903113017 77 251 6.0 13.0 0.00 0.00 0.00 51 1022.4
20260903112016 78 255 8.0 14.0 0.00 0.00 0.00 51 1022.4
20260903111016 79 262 9.0 17.0 0.00 0.00 0.00 50 1022.3
20260903110015 79 233 10.0 20.0 0.00 0.00 0.00 50 1022.3
20260903105020 78 266 7.0 15.0 0.00 0.00 0.00 53 1022.5
20260903104038 78 264 9.0 15.0 0.00 0.00 0.00 53 1022.7
20260903103015 77 256 5.0 12.0 0.00 0.00 0.00 57 1022.6
20260903102018 77 234 7.0 12.0 0.00 0.00 0.00 54 1022.6
20260903101015 76 231 6.0 15.0 0.00 0.00 0.00 55 1022.7
20260903100017 76 237 5.0 11.0 0.00 0.00 0.00 56 1022.7
20260903095018 76 223 6.0 10.0 0.00 0.00 0.00 56 1022.9
20260903094036 75 227 7.0 15.0 0.00 0.00 0.00 57 1023.0
20260903093016 74 256 5.0 12.0 0.00 0.00 0.00 58 1023.1
20260903092058 73 232 5.0 14.0 0.00 0.00 0.00 58 1023.2
20260903091017 73 246 7.0 12.0 0.00 0.00 0.00 58 1023.2
20260903090015 73 268 6.0 11.0 0.00 0.00 0.00 59 1023.2
20260903085017 73 259 5.0 12.0 0.00 0.00 0.00 59 1023.0
20260903084015 72 237 3.0 9.0 0.00 0.00 0.00 61 1023.2
20260903083020 72 266 4.0 9.0 0.00 0.00 0.00 60 1023.2
20260903082036 70 244 3.0 6.0 0.00 0.00 0.00 64 1023.0
20260903081017 70 218 3.0 8.0 0.00 0.00 0.00 65 1023.0
20260903080016 70 228 3.0 7.0 0.00 0.00 0.00 65 1023.0
20260903075019 69 245 2.0 4.0 0.00 0.00 0.00 67 1023.0
20260903074017 68 230 4.0 9.0 0.00 0.00 0.00 69 1023.1
20260903073016 67 210 3.0 9.0 0.00 0.00 0.00 70 1023.3
20260903072017 67 204 3.0 5.0 0.00 0.00 0.00 71 1023.4
20260903071057 66 221 3.0 5.0 0.00 0.00 0.00 71 1023.3
20260903070015 66 225 3.0 7.0 0.00 0.00 0.00 71 1023.2
20260903065036 64 203 2.0 6.0 0.00 0.00 0.00 74 1023.2
20260903064036 63 211 3.0 7.0 0.00 0.00 0.00 76 1023.1
20260903063017 62 206 2.0 6.0 0.00 0.00 0.00 77 1023.0
20260903062037 61 189 1.0 5.0 0.00 0.00 0.00 78 1023.0
20260903061017 60 188 1.0 4.0 0.00 0.00 0.00 79 1023.0
20260903060037 59 189 1.0 4.0 0.00 0.00 0.00 79 1023.0
20260903055015 59 192 1.0 4.0 0.00 0.00 0.00 80 1023.0
20260903054016 59 188 2.0 4.0 0.00 0.00 0.00 80 1023.0
20260903053017 58 192 2.0 5.0 0.00 0.00 0.00 81 1023.0
20260903052023 57 193 4.0 7.0 0.00 0.00 0.00 83 1022.9
20260903051036 56 184 2.0 4.0 0.00 0.00 0.00 83 1022.8
20260903050017 56 182 2.0 4.0 0.00 0.00 0.00 83 1022.8
20260903045037 56 180 2.0 3.0 0.00 0.00 0.00 82 1022.8
20260903044017 56 184 2.0 4.0 0.00 0.00 0.00 82 1022.7
20260903043037 57 187 1.0 3.0 0.00 0.00 0.00 81 1022.7
20260903042038 57 187 3.0 5.0 0.00 0.00 0.00 81 1022.5
20260903041016 57 183 3.0 4.0 0.00 0.00 0.00 81 1022.6
20260903040016 58 181 2.0 5.0 0.00 0.00 0.00 80 1022.7
20260903035017 58 184 2.0 4.0 0.00 0.00 0.00 80 1022.7
20260903034015 58 182 2.0 4.0 0.00 0.00 0.00 80 1022.7
20260903033016 59 179 1.0 3.0 0.00 0.00 0.00 80 1022.6
20260903032016 59 188 2.0 4.0 0.00 0.00 0.00 80 1022.7
20260903031019 58 186 2.0 3.0 0.00 0.00 0.00 80 1022.6
20260903030017 59 188 1.0 3.0 0.00 0.00 0.00 80 1022.7
20260903025015 58 189 1.0 4.0 0.00 0.00 0.00 80 1022.7
20260903024017 58 189 1.0 4.0 0.00 0.00 0.00 79 1022.6
20260903023016 59 189 1.0 2.0 0.00 0.00 0.00 79 1022.7
20260903022015 59 189 1.0 4.0 0.00 0.00 0.00 79 1022.7
20260903021019 59 189 1.0 4.0 0.00 0.00 0.00 79 1022.6
20260903020016 59 189 1.0 4.0 0.00 0.00 0.00 78 1022.6
20260903015019 59 188 2.0 4.0 0.00 0.00 0.00 78 1022.6
20260903014015 59 189 1.0 4.0 0.00 0.00 0.00 78 1022.6
20260903013017 59 186 1.0 3.0 0.00 0.00 0.00 78 1022.7
20260903012015 59 187 2.0 5.0 0.00 0.00 0.00 78 1022.6
20260903011018 59 187 2.0 6.0 0.00 0.00 0.00 78 1022.5
20260903010016 60 182 2.0 4.0 0.00 0.00 0.00 78 1022.5
20260903005040 60 191 1.0 4.0 0.00 0.00 0.00 77 1022.5
20260903004018 60 185 2.0 4.0 0.00 0.00 0.00 77 1022.4
20260903003015 60 185 1.0 3.0 0.00 0.00 0.00 76 1022.4
20260903002018 61 186 2.0 3.0 0.00 0.00 0.00 75 1022.3
20260903001016 61 186 1.0 2.0 0.00 0.00 0.00 75 1022.3
20260903000017 61 186 1.0 3.0 0.00 0.00 0.00 75 1022.4
20260902235017 61 186 2.0 2.0 0.00 0.00 0.00 74 1022.4
20260902234039 62 186 0.0 2.0 0.00 0.00 0.00 74 1022.3
20260902233018 62 186 1.0 3.0 0.00 0.00 0.00 73 1022.3
20260902232035 62 185 1.0 3.0 0.00 0.00 0.00 73 1022.3
20260902231017 62 185 1.0 3.0 0.00 0.00 0.00 73 1022.3
20260902230015 62 186 1.0 2.0 0.00 0.00 0.00 72 1022.3
20260902225018 63 186 1.0 3.0 0.00 0.00 0.00 71 1022.4
20260902224037 63 184 2.0 4.0 0.00 0.00 0.00 71 1022.3
20260902223017 63 183 1.0 2.0 0.00 0.00 0.00 70 1022.3
20260902222018 63 183 1.0 2.0 0.00 0.00 0.00 70 1022.2
20260902221016 63 181 2.0 3.0 0.00 0.00 0.00 70 1022.1
20260902220017 63 181 2.0 3.0 0.00 0.00 0.00 70 1022.0
20260902215016 62 181 1.0 3.0 0.00 0.00 0.00 72 1022.0
20260902214015 62 181 1.0 3.0 0.00 0.00 0.00 72 1021.9
20260902213016 63 181 0.0 2.0 0.00 0.00 0.00 71 1021.8
20260902212018 63 184 1.0 4.0 0.00 0.00 0.00 71 1021.8
20260902211037 64 182 1.0 3.0 0.00 0.00 0.00 70 1021.8
20260902210015 64 185 3.0 4.0 0.00 0.00 0.00 69 1021.7
20260902205038 64 197 3.0 5.0 0.00 0.00 0.00 70 1021.7
20260902204017 64 195 2.0 6.0 0.00 0.00 0.00 72 1021.7
20260902203016 64 185 2.0 5.0 0.00 0.00 0.00 72 1021.6
20260902202016 64 179 2.0 4.0 0.00 0.00 0.00 72 1021.6
20260902201036 64 180 2.0 3.0 0.00 0.00 0.00 72 1021.5
20260902200017 64 0.0 0.0 0.00 0.00 0.00 74 1021.6
20260902195017 65 0.0 0.0 0.00 0.00 0.00 74 1021.6
20260902194016 65 0.0 0.0 0.00 0.00 0.00 74 1021.6
20260902193016 66 204 2.0 4.0 0.00 0.00 0.00 72 1021.5
20260902192016 66 186 0.0 2.0 0.00 0.00 0.00 69 1021.5
20260902191017 66 186 0.0 2.0 0.00 0.00 0.00 69 1021.4
20260902190021 66 186 0.0 1.0 0.00 0.00 0.00 69 1021.4
20260902185039 67 186 1.0 3.0 0.00 0.00 0.00 68 1021.4
20260902184015 67 324 0.0 2.0 0.00 0.00 0.00 68 1021.2
20260902183015 68 0.0 0.0 0.00 0.00 0.00 67 1021.0